Regional Weather Roundup
Issued by NWS Grand Forks, ND

Home | Current Version | Previous Version | Graphics & Text | Print | Product List | Glossary On
Versions: 1 2 3 4 5 6 7 8 9 10 11 12 13 14 15 16 17 18 19 20 21 22 23 24 25 26 27 28 29 30 31 32 33 34 35 36 37 38 39 40 41 42 43 44 45 46 47 48 49 50
267
ASUS43 KFGF 220910
RWRFGF
PRAIRIE TO PINES  WEATHER ROUNDUP
NATIONAL WEATHER SERVICE EASTERN NORTH DAKOTA/GRAND FORKS ND
400 AM CDT TUE AUG 22 2017

 **SATELLITE DATA USED TO AUGMENT SKY COVER AT AUTOMATED STATIONS**
 *****  WEATHER ACROSS EASTERN NORTH DAKOTA  *****

CITY           SKY/WX    TMP DP  RH WIND       PRES   REMARKS
GRAND FORKS    FAIR      50  47  89 W8        29.99S
GRAND FRKS AFB FAIR      52  45  78 NW8       30.00S
DEVILS LAKE    FAIR      53  45  74 NW9       30.07R
FARGO          FAIR      51  48  89 W3        30.02S
WAHPETON ARPT  FAIR      48  45  87 NW7       30.04S
$$

 ***** WEATHER ACROSS CENTRAL AND WESTERN NORTH DAKOTA  *****

CITY           SKY/WX    TMP DP  RH WIND       PRES   REMARKS
BISMARCK       FAIR      50  45  83 SW5       30.14S
MINOT          FAIR      50  41  71 SW9       30.12R
JAMESTOWN      FAIR      50  45  83 W8        30.08R
MINOT AFB      FAIR      45  39  78 W7        30.10S
GARRISON         N/A     46  41  82 NW9       30.14R
WILLISTON      FAIR      45  37  73 CALM      30.18R
DICKINSON      FAIR      44  37  76 VRB3      30.18S
HETTINGER      FAIR      40  37  89 W5        30.21S
$$

 *****  OTHER AIRPORT OBSERVATIONS IN OUR AREA  *****

CITY           SKY/WX    TMP DP  RH WIND       PRES   REMARKS
WALHALLA       FAIR      54  54 100 W9        30.00S
GRAFTON AIRPOR FAIR      54  46  76 NW10      30.01R
VALLEY CITY AR   N/A     52  50  93 W12       30.08R
CANDO          FAIR      48  48 100 W8        30.08S
CAVALIER APRT  FAIR      54  45  71 W10       29.99S
GWINNER        SUNNY     54  48  82 W8        30.06S
SHEYENNE NWR     N/A     50  49  97 W3        29.95S
ROLLA          FAIR      50  43  76 NW9       30.08S
 ***** THE ABOVE OBSERVATIONS ARE NON NWS ARE NOT QUALITY
       CONTROLLED AND MAY MIS-REPORT RAIN FOR SNOW...
$$

  *****  WEATHER ACROSS NORTHERN MINNESOTA  *****

CITY           SKY/WX    TMP DP  RH WIND       PRES   REMARKS
FLAG ISLAND      N/A     54  48  82 W6        29.89F
WARROAD        FAIR      48  45  87 W6        29.94S
ROSEAU         FAIR      52  46  82 W9        29.95S
HALLOCK        FAIR      48  46  93 CALM      29.97S
THF RVR FALLS  NOT AVBL
BAUDETTE       FAIR      49  49 100 W6        29.92S
WASKISH        FAIR      55  54  94 NW10G18   29.95S
CROOKSTON      FAIR      46  46 100 W3        30.00S
STEPHEN NDAWN    N/A     48  45  87 W5          N/A
GREENBUSH NDAW   N/A     46  45  93 W3          N/A
$$
  *****  WEATHER ACROSS CENTRAL AND WEST MINNESOTA  *****

CITY           SKY/WX    TMP DP  RH WIND       PRES   REMARKS
FOSSTON        FAIR      48  46  93 W3        30.00S
BEMIDJI        FAIR      48  48 100 W7        29.97S
PARK RAPIDS    FAIR      52  50  93 NW6       29.98R
ELBOW LAKE     FAIR      53  52  95 NW9       30.03R
WADENA         FAIR      52  52 100 W6        29.99R
DETROIT LAKES  FAIR      52  50  93 NW7       30.02S
MOORHEAD       FAIR      52  48  87 W3        30.03S
FERGUS FALLS   FAIR      52  52 100 CALM      30.04R
MORRIS MN      FAIR      54  52  94 NW9       30.02R
STAPLES        FAIR      52  50  93 W5        29.98R
$$
  *****  WEATHER ELSEWHERE ACROSS MINNESOTA  *****

CITY           SKY/WX    TMP DP  RH WIND       PRES   REMARKS
DULUTH         CLOUDY    56  55  97 NW10      29.86R
INTRNTL FALLS  FAIR      50  48  93 W6        29.89R
ELY            CLOUDY    52  52 100 W3        29.85S
CLOQUET        FAIR      55  52  88 NW7       29.88R
WHEATON        FAIR      54  50  87 NW6       30.06R
BRAINERD       FAIR      56  53  90 NW9       29.95R
HIBBING        FAIR      52  50  93 NW12      29.89R
ALEXANDRIA     FAIR      57  54  89 NW9       30.02R
SAINT CLOUD    FAIR      59  55  87 NW10      29.94R
MINNEAPOLIS    FAIR      63  59  87 NW10      29.91R
$$

  *****  WEATHER ACROSS SOUTH DAKOTA  *****

CITY           SKY/WX    TMP DP  RH WIND       PRES   REMARKS
SIOUX FALLS    FAIR      58  55  90 N10       30.08R
BROOKINGS      FAIR      53  50  89 NW3       30.09R
WATERTOWN      FAIR      54  52  93 W6        30.07R
HURON          FAIR      49  48  97 W6        30.11R
SISSETON         N/A     53  50  89 NW7       30.04S
ABERDEEN       FAIR      48  45  89 W3        30.10R
MITCHELL       FAIR      54  51  90 NW6       30.11R
PIERRE         FAIR      56  46  69 W3        30.14R
MOBRIDGE       FAIR      50  45  83 N7        30.13R
RAPID CITY     FAIR      48  41  76 NW7       30.22S
$$

  *****  SOME WEATHER IN NEARBY STATES *****

CITY           SKY/WX    TMP DP  RH WIND       PRES   REMARKS
GLASGOW MT     NOT AVBL
GREAT FALLS MT FAIR      52  34  50 SW3       30.16R
CHEYENNE WY    FAIR      55  46  71 S6        30.36R
SCOTTSBLUFF NE FAIR      54  47  77 E7        30.26S
OMAHA NE       MOCLDY    65  62  90 NW3       30.03R
DES MOINES IA  CLOUDY    65  64  97 W6        29.96S
DAVENPORT IA   MOCLDY    69  65  86 W9        29.91F
CHICAGO IL     CLOUDY    75  69  81 SW14G22   29.87R
EAU CLAIRE WI  FAIR      64  62  93 W8        29.82S
LA CROSSE WI   CLOUDY    70  64  81 W9        29.83F
$$

  *****  SOME NATIONAL WEATHER *****

CITY           SKY/WX    TMP DP  RH WIND       PRES   REMARKS
LA GUARDIA NY  FAIR      76  73  91 S7        30.03S
RALEIGH NC     FAIR      75  73  93 SW6       30.12S
ATLANTA GA     FAIR      75  71  87 CALM      30.12F
NEW ORLEANS LA MOCLDY    80  75  84 CALM      30.03S
OKLAHOMA CITY  FAIR      73  70  90 S6        30.04R
ALBUQUERQUE NM FAIR      68  55  63 S6        30.26S
SALT LAKE CITY FAIR      72  44  36 SE3       30.15R
LOS ANGELES CA FAIR      66  64  93 SW6       29.98S
BOISE ID       FAIR      66  39  37 SE12      30.06S
SEATTLE WA     FAIR      68  53  58 N7        30.00S
$$

*** WEATHER ACROSS MANITOBA...SASKATCHEWAN AND ONTARIO ***
                ***ONTARIO***

CITY           SKY/WX    TMP DP  RH WIND       PRES   REMARKS
GERALDTON      LGT RAIN  54  52  94 SE2       29.72F
THUNDER BAY    CLOUDY    55  55 100 W6        29.76F
SIOUX LOOKOUT  PTCLDY    52  50  93 NW7       29.80F
TORONTO        CLOUDY    73  68  83 S3        29.84F
BIG TROUT LK   CLOUDY    54  52  94 N7G17     29.73S
PICKLE LAKE    NOT AVBL
DRYDEN         PTCLDY    50  48  93 W6        29.83F
KENORA         CLOUDY    52  48  87 W6        29.88F
$$
                *** MANITOBA***

CITY           SKY/WX    TMP DP  RH WIND       PRES   REMARKS
BRANDON        CLEAR     43  41  93 W8        30.05S
DAUPHIN        CLEAR     50  45  81 W10       30.00S
ISLAND LAKE    CLOUDY    54  52  94 W9        29.83S
PILOT MOUND      N/A     41  39  93 W3          N/A
THE PAS        CLEAR     59  50  72 NW8       29.99S
THOMPSON       DRIZZLE   52  50  93 N8        29.97R
WINNIPEG       PTCLDY    50  48  93 W9        29.95S
LYNN LAKE      CLOUDY    52  50  93 MISG      30.01S
CHURCHILL      CLOUDY    46  43  87 NE9       30.02R
GILLAM         LGT RAIN  50  48  93 NE17G24   29.93R
$$
                ***SASKATCHEWAN***

CITY           SKY/WX    TMP DP  RH WIND       PRES   REMARKS
ESTEVAN        CLEAR     43  39  87 W6        30.15R
KINDERSLEY     CLOUDY    54  39  58 S7        30.11F
LLOYDMINSTER   CLOUDY    57  48  72 SW8       30.07S
PRINCE ALBERT  CLEAR     41  37  87 CALM      30.10S
REGINA         NOT AVBL
YORKTON        CLEAR     48  43  81 W13       30.08S
N. BATTLEFORD  LGT RAIN  54  46  76 E7        30.11S
LA RONGE       CLEAR     52  46  82 SW6       30.03S
SASKATOON      MOCLDY    46  43  87 SE2       30.13S
SWIFT CURRENT  PTCLDY    52  32  46 S12       30.15S
$$
NOTE: THESE ARE AUTOMATED STATIONS WITH LIMITED QUALITY CONTROL
      "FAIR" INDICATES FEW OR NO CLOUDS BELOW 12,000 FEET WITH NO
      SIGNIFICANT WEATHER AND/OR OBSTRUCTIONS TO VISIBILITY.
      SKY/WX - SKY CONDITION AND SIGNIFICANT WEATHER.
      TMP - AIR TEMPERATURE.    DP   - DEWPOINT TEMPERATURE.
      RH  - RELATIVE HUMIDITY.  PRES - PRESSURE.
      HX  - HEAT INDEX.         WCI  - WIND CHILL INDEX.
$




USA.gov is the U.S. government's official web portal to all federal, state and local government web resources and services.